AirNav   Duncan Aviation - Near you to keep you flying
 
 752 users online  

42B Goodspeed Airport
East Haddam, Connecticut, USA

GOING TO EAST HADDAM?


FAA INFORMATION EFFECTIVE 07 OCTOBER 2021

Location

FAA Identifier: 42B
Lat/Long: 41-26-44.3560N 072-27-20.3130W
41-26.739267N 072-27.338550W
41.4456544,-72.4556425
(estimated)
Elevation: 9 ft. / 3 m (estimated)
Variation: 14W (1985)
From city: 1 mile SE of EAST HADDAM, CT
Time zone: UTC -4 (UTC -5 during Standard Time)
Zip code: 06423

Airport Operations

Airport use: Open to the public
Activation date: 11/1964
Control tower: no
ARTCC: NEW YORK CENTER
FSS: BRIDGEPORT FLIGHT SERVICE STATION
NOTAMs facility: BDR (NOTAM-D service available)
Attendance: UNATNDD
Wind indicator: lighted
Segmented circle: no
Lights: ARPT LGTS OPR 24/7.
Landing fee: yes, OVNGT PRKG FEE.

Airport Communications

CTAF/UNICOM: 122.8
WX AWOS-3 at SNC (4 nm SW): 118.325 (860-526-1551)
WX ASOS at MMK (17 nm W): 134.925 (203-639-9405)
WX ASOS at HFD (20 nm NW): PHONE 860-527-5837
WX ASOS at GON (20 nm E): 127.0 (860-449-8921)

Nearby radio navigation aids

VOR radial/distance  VOR name  Freq  Var
HFDr174/12.4HARTFORD VOR/DME114.9013W
MADr066/13.3MADISON VOR/DME110.4013W
GONr305/19.4GROTON VOR/DME110.8514W
ORWr266/21.6NORWICH VOR/DME110.0014W
HTOr002/32.2HAMPTON VORTAC113.6013W
CCCr040/34.6CALVERTON VOR/DME117.2013W
BDRr072/34.7BRIDGEPORT VOR/DME108.8012W

Airport Services

Parking: tiedowns

Runway Information

Runway 14/32

Dimensions: 2120 x 50 ft. / 646 x 15 m
Surface: asphalt, in good condition
Weight bearing capacity: 
Single wheel: 8.0
Runway edge lights: low intensity
RUNWAY 14  RUNWAY 32
Latitude: 41-26.886333N41-26.656500N
Longitude: 072-27.613167W072-27.263667W
Traffic pattern: leftleft
Markings: basic, in fair conditionbasic, in fair condition
Runway end identifier lights: nono
Obstructions: 379 ft. trees, 8100 ft. from runway, 935 ft. right of centerline, 21:1 slope to clear
+12 FT N-S ROAD AT THR.
67 ft. trees, 511 ft. from runway, 196 ft. right of centerline, 7:1 slope to clear

Runway 16W/34W

Dimensions: 4500 x 1000 ft. / 1372 x 305 m
Surface: water
RUNWAY 16W  RUNWAY 34W
Traffic pattern: leftleft
Runway end identifier lights: nono
Obstructions: 85 ft. bridge, lighted, 1700 ft. from runway, 20:1 slope to clearhill, 2500 ft. from runway, 34:1 slope to clear

Airport Ownership and Management from official FAA records

Ownership: Privately-owned
Owner: GOODSPEED ARPT LLC
PO BOX 441
LYME, CT 06371
Manager: MATHEW BELCOURT
2635 DOWNS ROAD, GOODSPEED AIRPORT
HAMDEN, CT 06518
Phone (860) 615-9068
FAX NR 860-434-0410.

Airport Operational Statistics

Aircraft based on the field: 33
Single engine airplanes: 29
Multi engine airplanes: 1
Ultralights: 3
    
Aircraft operations: avg 119/week *
80% local general aviation
19% transient general aviation
<1% air taxi
* for 12-month period ending 31 August 2014

Additional Remarks

PRKG FEE.
CTN FOR DEER, BIRDS & WATERFOWL ON & INVOF ARPT.
FOR CD CTC NEW YORK APCH AT 516-683-2449.

Instrument Procedures

There are no published instrument procedures at 42B.

Some nearby airports with instrument procedures:

KSNC - Chester Airport (4 nm SW)
KMMK - Meriden Markham Municipal Airport (17 nm W)
KHFD - Hartford-Brainard Airport (20 nm NW)
KGON - Groton-New London Airport (20 nm E)
KIJD - Windham Airport (22 nm NE)
 
Loc | Ops | Rwys | IFR | FBO | Links
Com | Nav | Svcs | Stats | Notes

Silver City Flying Club
 
Area around 42B (Goodspeed Airport)
 
Road maps at: MapQuest Bing Google
 
Aerial photo
WARNING: Photo may not be current or correct
Aerial photo of 42B (Goodspeed Airport)
Taken in December 2006

Do you have a better or more recent aerial photo of Goodspeed Airport that you would like to share? If so, please send us your photo.

 
Sectional chart

 
Airport distance calculator
Flying to Goodspeed Airport? Find the distance to fly.

From to 42B

Sunrise and sunset
Times for 21-Oct-2021
 Local
(UTC-4)
 Zulu
(UTC)
Morning civil twilight06:4110:41
Sunrise07:1011:10
Sunset17:5921:59
Evening civil twilight18:2822:28

Current date and time
Zulu (UTC)  21-Oct-2021 04:43:45
Local (UTC-4)  21-Oct-2021 00:43:45
 
METAR
KSNC 
4nm SW 
210415Z AUTO 00000KT 10SM CLR 16/12 A3000 RMK AO2
KMMK 
18nm W 
210353Z AUTO 00000KT 10SM BKN100 13/11 A3000 RMK AO2 SLP159 T01280111
KHFD 
19nm NW 
210353Z 00000KT 10SM BKN100 15/12 A2999 RMK AO2 SLP155 T01500122
KGON 
19nm E 
210356Z AUTO 26005KT 10SM BKN110 17/13 A2999 RMK AO2 SLP155 T01720128
TAF
KGON 
19nm E 
210254Z 2103/2124 27004KT P6SM SCT120 FM211400 23009KT P6SM SCT100 FM211700 21012G17KT P6SM FEW150 FM212200 20011KT P6SM SCT250
NOTAMs
Click for the latest NOTAMs
NOTAMs are issued by the DoD/FAA and will open in a separate window not controlled by AirNav.

 

 
 

Would you like to see your business listed on this page?

 If your business provides an interesting product or service to pilots, flight crews, aircraft, or users of the Goodspeed Airport, you should consider listing it here.  To start the listing process, click on the button below
 
Add a business
 

Other Pages about Goodspeed Airport

Update a link
 
Copyright © AirNav, LLC. All rights reserved. Privacy Policy  Contact